FW4655 Weather Reports


Display with metric or nautical units.
time (UTC)temp
F
wind
direction
speed
MPH
gust
MPH
rain 1hr
in
rain 24hr
in
rain mn
in
humidity
%
barometer
mb
20260510140029 54 79 0.0 0.0 0.00 0.00 0.00 81 1019.2
20260510135505 54 79 0.0 0.0 0.00 0.00 0.00 81 1018.9
20260510135007 54 79 0.0 0.0 0.00 0.00 0.00 81 1018.8
20260510134516 54 79 0.0 0.0 0.00 0.00 0.00 81 1018.7
20260510134007 53 80 0.0 0.0 0.00 0.00 0.00 81 1018.8
20260510133507 53 94 0.0 1.0 0.00 0.00 0.00 82 1018.8
20260510133019 53 93 0.0 1.0 0.00 0.00 0.00 82 1018.5
20260510132512 53 28 0.0 2.0 0.00 0.00 0.00 83 1018.5
20260510132010 53 28 0.0 2.0 0.00 0.00 0.00 83 1018.6
20260510131525 53 124 0.0 1.0 0.00 0.00 0.00 84 1018.6
20260510131009 53 133 0.0 0.0 0.00 0.00 0.00 84 1018.6
20260510130509 53 133 0.0 0.0 0.00 0.00 0.00 84 1018.4
20260510130030 53 130 0.0 0.0 0.00 0.00 0.00 83 1018.5
20260510125509 53 130 0.0 0.0 0.00 0.00 0.00 83 1018.7
20260510125012 53 130 0.0 0.0 0.00 0.00 0.00 83 1018.9
20260510124547 53 130 0.0 0.0 0.00 0.00 0.00 84 1018.9
20260510124013 52 130 0.0 0.0 0.00 0.00 0.00 83 1018.8
20260510123510 53 130 0.0 1.0 0.00 0.00 0.00 84 1018.6
20260510123018 53 130 0.0 1.0 0.00 0.00 0.00 83 1018.6
20260510122508 53 130 0.0 1.0 0.00 0.00 0.00 83 1018.7
20260510122010 53 130 0.0 2.0 0.00 0.00 0.00 82 1018.7
20260510121521 53 119 0.0 2.0 0.00 0.00 0.00 83 1018.6
20260510121008 53 78 0.0 1.0 0.00 0.00 0.00 82 1018.7
20260510120511 53 78 0.0 2.0 0.00 0.00 0.00 83 1018.7
20260510120028 53 78 0.0 2.0 0.00 0.00 0.00 83 1018.6
20260510115507 53 88 0.0 2.0 0.00 0.00 0.00 84 1018.5
20260510115003 53 84 0.0 1.0 0.00 0.00 0.00 83 1018.5
20260510114511 53 85 0.0 1.0 0.00 0.00 0.00 83 1018.4
20260510114005 54 84 0.0 1.0 0.00 0.00 0.00 83 1018.3
20260510113505 54 85 0.0 1.0 0.00 0.00 0.00 83 1018.4
20260510113010 54 83 0.0 0.0 0.00 0.00 0.00 82 1018.5
20260510112505 54 83 0.0 1.0 0.00 0.00 0.00 82 1018.4
20260510112006 55 83 0.0 1.0 0.00 0.00 0.00 81 1018.4
20260510111506 55 83 0.0 1.0 0.00 0.00 0.00 81 1018.3
20260510111005 55 100 0.0 1.0 0.00 0.00 0.00 81 1018.1
20260510110507 55 50 0.0 2.0 0.00 0.00 0.00 80 1018.0
20260510110010 56 50 0.0 3.0 0.00 0.00 0.00 80 1018.1
20260510105503 56 96 0.0 3.0 0.00 0.00 0.00 80 1018.0
20260510105007 56 69 1.0 3.0 0.00 0.00 0.00 80 1018.1
20260510104512 56 79 0.0 3.0 0.00 0.00 0.00 80 1017.9
20260510104006 56 30 1.0 3.0 0.00 0.00 0.00 80 1017.9
20260510103504 56 42 0.0 3.0 0.00 0.00 0.00 80 1017.7
20260510103008 56 42 0.0 3.0 0.00 0.00 0.00 79 1017.6
20260510102505 56 54 1.0 2.0 0.00 0.00 0.00 80 1017.6
20260510102006 56 84 0.0 0.0 0.00 0.00 0.00 80 1017.5
20260510101508 56 89 0.0 0.0 0.00 0.00 0.00 80 1017.4
20260510101008 55 108 0.0 0.0 0.00 0.00 0.00 81 1017.2
20260510100511 55 136 0.0 0.0 0.00 0.00 0.00 80 1017.2
20260510100006 55 136 0.0 0.0 0.00 0.00 0.00 80 1017.0
20260510095505 55 51 0.0 0.0 0.00 0.00 0.00 80 1016.8
20260510095004 55 51 0.0 0.0 0.00 0.00 0.00 79 1017.0
20260510094508 55 51 0.0 0.0 0.00 0.00 0.00 79 1017.1
20260510094004 56 51 0.0 0.0 0.00 0.00 0.00 78 1017.1
20260510093509 56 51 0.0 0.0 0.00 0.00 0.00 77 1017.2
20260510093008 57 51 0.0 0.0 0.00 0.00 0.00 76 1017.2
20260510092509 57 51 0.0 0.0 0.00 0.00 0.00 76 1017.2
20260510092009 57 51 0.0 0.0 0.00 0.00 0.00 76 1017.1
20260510091517 58 51 0.0 0.0 0.00 0.00 0.00 74 1017.1
20260510091005 58 51 0.0 0.0 0.00 0.00 0.00 74 1017.0
20260510090506 58 51 0.0 0.0 0.00 0.00 0.00 74 1017.0
20260510090012 58 45 0.0 0.0 0.00 0.00 0.00 76 1017.0
20260510085506 56 68 0.0 0.0 0.00 0.00 0.00 77 1016.9
20260510085005 56 93 0.0 0.0 0.00 0.00 0.00 77 1016.9
20260510084510 56 93 0.0 0.0 0.00 0.00 0.00 78 1016.8
20260510084006 56 93 0.0 0.0 0.00 0.00 0.00 77 1016.7
20260510083514 56 93 0.0 0.0 0.00 0.00 0.00 77 1016.7
20260510083012 56 93 0.0 0.0 0.00 0.00 0.00 77 1016.7
20260510082504 57 93 0.0 0.0 0.00 0.00 0.00 76 1016.7
20260510082005 57 93 0.0 0.0 0.00 0.00 0.00 75 1016.6
20260510081528 57 93 0.0 1.0 0.00 0.00 0.00 75 1016.6
20260510081005 57 93 0.0 1.0 0.00 0.00 0.00 75 1016.7
20260510080508 57 68 0.0 1.0 0.00 0.00 0.00 75 1016.7
20260510080013 57 68 0.0 1.0 0.00 0.00 0.00 74 1016.7
20260510075512 58 68 0.0 1.0 0.00 0.00 0.00 74 1016.7
20260510075007 58 68 0.0 1.0 0.00 0.00 0.00 74 1016.7
20260510074513 58 68 0.0 0.0 0.00 0.00 0.00 73 1016.7
20260510074014 58 68 0.0 1.0 0.00 0.00 0.00 73 1016.7
20260510073513 58 68 0.0 1.0 0.00 0.00 0.00 73 1016.7
20260510073022 59 68 0.0 0.0 0.00 0.00 0.00 72 1016.7
20260510072507 59 68 0.0 1.0 0.00 0.00 0.00 72 1016.6
20260510072006 59 68 0.0 1.0 0.00 0.00 0.00 72 1016.6
20260510071517 59 68 0.0 0.0 0.00 0.00 0.00 72 1016.6
20260510071008 59 68 0.0 0.0 0.00 0.00 0.00 71 1016.5
20260510070506 60 68 0.0 0.0 0.00 0.00 0.00 71 1016.6
20260510070022 60 68 0.0 0.0 0.00 0.00 0.00 70 1016.6
20260510065510 60 68 0.0 0.0 0.00 0.00 0.00 70 1016.5
20260510065009 61 68 0.0 0.0 0.00 0.00 0.00 69 1016.5
20260510064542 61 68 0.0 0.0 0.00 0.00 0.00 69 1016.5
20260510064006 61 68 0.0 0.0 0.00 0.00 0.00 69 1016.5
20260510063507 62 68 0.0 1.0 0.00 0.00 0.00 68 1016.4
20260510063020 62 68 0.0 1.0 0.00 0.00 0.00 68 1016.4
20260510062508 62 68 0.0 1.0 0.00 0.00 0.00 67 1016.4
20260510062007 63 68 0.0 1.0 0.00 0.00 0.00 66 1016.5
20260510061530 63 68 0.0 0.0 0.00 0.00 0.00 65 1016.6
20260510061007 64 68 0.0 0.0 0.00 0.00 0.00 64 1016.6
20260510060509 64 68 0.0 1.0 0.00 0.00 0.00 63 1016.5
20260510060028 65 68 0.0 1.0 0.00 0.00 0.00 61 1016.5
20260510055505 65 68 0.0 1.0 0.00 0.00 0.00 60 1016.6
20260510055006 66 68 0.0 1.0 0.00 0.00 0.00 60 1016.5
20260510054516 66 161 0.0 2.0 0.00 0.00 0.00 60 1016.5
20260510054007 66 150 1.0 2.0 0.00 0.00 0.00 60 1016.4
20260510053511 66 61 0.0 2.0 0.00 0.00 0.00 59 1016.4
20260510053017 66 82 0.0 2.0 0.00 0.00 0.00 59 1016.5
20260510052508 67 43 0.0 1.0 0.00 0.00 0.00 59 1016.5
20260510052012 67 43 0.0 1.0 0.00 0.00 0.00 58 1016.4
20260510051520 68 43 0.0 3.0 0.00 0.00 0.00 58 1016.5
20260510051007 68 64 0.0 4.0 0.00 0.00 0.00 57 1016.6
20260510050506 68 45 2.0 4.0 0.00 0.00 0.00 57 1016.5
20260510050020 68 122 0.0 3.0 0.00 0.00 0.00 57 1016.5
20260510045510 68 41 1.0 6.0 0.00 0.00 0.00 57 1016.4
20260510045017 69 54 2.0 6.0 0.00 0.00 0.00 56 1016.3
20260510044523 69 61 2.0 5.0 0.00 0.00 0.00 56 1016.3
20260510044012 69 53 2.0 5.0 0.00 0.00 0.00 56 1016.3
20260510043511 69 52 0.0 3.0 0.00 0.00 0.00 56 1016.3
20260510043022 69 354 1.0 4.0 0.00 0.00 0.00 55 1016.1
20260510042506 69 67 0.0 5.0 0.00 0.00 0.00 55 1016.0
20260510042010 69 82 2.0 5.0 0.00 0.00 0.00 54 1015.9
20260510041522 69 33 2.0 5.0 0.00 0.00 0.00 54 1015.8
20260510041008 70 56 1.0 2.0 0.00 0.00 0.00 54 1015.8
20260510040507 70 63 0.0 7.0 0.00 0.00 0.00 54 1015.7
20260510040022 70 55 2.0 7.0 0.00 0.00 0.00 53 1015.6
20260510035510 70 44 3.0 6.0 0.00 0.00 0.00 52 1015.6
20260510035010 70 56 2.0 5.0 0.00 0.00 0.00 52 1015.5
20260510034521 70 51 1.0 6.0 0.00 0.00 0.00 52 1015.5
20260510034011 71 42 1.0 6.0 0.00 0.00 0.00 51 1015.5
20260510033507 71 25 3.0 6.0 0.00 0.00 0.00 51 1015.5
20260510033024 71 319 1.0 5.0 0.00 0.00 0.00 51 1015.4
20260510032507 71 341 1.0 3.0 0.00 0.00 0.00 51 1015.5
20260510032011 71 23 0.0 5.0 0.00 0.00 0.00 50 1015.5
20260510031527 72 47 2.0 7.0 0.00 0.00 0.00 50 1015.4
20260510031011 72 80 2.0 7.0 0.00 0.00 0.00 49 1015.4
20260510030507 72 68 3.0 6.0 0.00 0.00 0.00 49 1015.4
20260510030024 72 58 2.0 6.0 0.00 0.00 0.00 49 1015.4
20260510025503 73 44 3.0 6.0 0.00 0.00 0.00 48 1015.4
20260510025003 73 44 2.0 7.0 0.00 0.00 0.00 48 1015.3
20260510024504 73 55 2.0 10.0 0.00 0.00 0.00 47 1015.4
20260510024003 73 72 4.0 10.0 0.00 0.00 0.00 47 1015.4
20260510023507 73 68 4.0 8.0 0.00 0.00 0.00 46 1015.3
20260510023010 74 49 4.0 33.0 0.00 0.00 0.00 45 1015.4
20260510022504 74 46 5.0 33.0 0.00 0.00 0.00 45 1015.3
20260510022007 74 39 4.0 35.0 0.00 0.00 0.00 44 1015.4
20260510021514 75 45 4.0 35.0 0.00 0.00 0.00 42 1015.3
20260510021008 75 25 5.0 7.0 0.00 0.00 0.00 40 1015.3
20260510020506 76 43 3.0 5.0 0.00 0.00 0.00 39 1015.4
20260510020020 76 47 2.0 9.0 0.00 0.00 0.00 38 1015.4
20260510015509 76 57 3.0 9.0 0.00 0.00 0.00 38 1015.4
20260510015007 77 58 4.0 9.0 0.00 0.00 0.00 38 1015.4
20260510014503 77 61 2.0 7.0 0.00 0.00 0.00 38 1015.5
20260510014003 77 30 4.0 7.0 0.00 0.00 0.00 36 1015.6
20260510013503 78 46 3.0 7.0 0.00 0.00 0.00 34 1015.6
20260510013004 78 60 4.0 9.0 0.00 0.00 0.00 33 1015.6
20260510012504 78 39 3.0 9.0 0.00 0.00 0.00 32 1015.7
20260510012007 78 44 3.0 8.0 0.00 0.00 0.00 30 1015.7
20260510011512 78 6 2.0 8.0 0.00 0.00 0.00 31 1015.7
20260510011003 78 73 3.0 8.0 0.00 0.00 0.00 31 1015.8
20260510010509 78 35 3.0 7.0 0.00 0.00 0.00 29 1015.7
20260510010015 78 86 3.0 9.0 0.00 0.00 0.00 26 1015.6
20260510005507 78 73 4.0 9.0 0.00 0.00 0.00 27 1015.6
20260510005008 79 101 1.0 7.0 0.00 0.00 0.00 29 1015.8
20260510004520 79 111 4.0 6.0 0.00 0.00 0.00 28 1015.7
20260510004015 79 101 3.0 5.0 0.00 0.00 0.00 29 1015.7
20260510003516 79 75 2.0 5.0 0.00 0.00 0.00 29 1015.7
20260510003027 80 100 2.0 5.0 0.00 0.00 0.00 29 1015.7
20260510002504 80 84 2.0 7.0 0.00 0.00 0.00 30 1015.8
20260510002003 80 27 2.0 7.0 0.00 0.00 0.00 29 1015.9
20260510001509 80 13 1.0 7.0 0.00 0.00 0.00 30 1015.8
20260510001004 81 77 1.0 5.0 0.00 0.00 0.00 30 1015.8
20260510000507 80 63 2.0 6.0 0.00 0.00 0.00 28 1015.9
20260510000010 80 184 2.0 7.0 0.00 0.00 0.00 30 1016.0
20260509235507 80 77 3.0 7.0 0.00 0.00 0.00 28 1016.0
20260509235012 80 78 2.0 6.0 0.00 0.00 0.00 30 1016.0
20260509234533 80 98 3.0 9.0 0.00 0.00 0.00 30 1016.1
20260509234009 79 76 4.0 9.0 0.00 0.00 0.00 30 1016.2
20260509233508 80 97 3.0 7.0 0.00 0.00 0.00 31 1016.2
20260509233034 80 103 2.0 11.0 0.00 0.00 0.00 31 1016.2
20260509232510 79 75 3.0 11.0 0.00 0.00 0.00 30 1016.4
20260509232007 79 15 4.0 7.0 0.00 0.00 0.00 30 1016.4
20260509231527 80 56 4.0 7.0 0.00 0.00 0.00 29 1016.4
20260509231007 79 87 2.0 6.0 0.00 0.00 0.00 30 1016.5
20260509230504 79 331 3.0 6.0 0.00 0.00 0.00 30 1016.6
20260509230008 79 33 2.0 6.0 0.00 0.00 0.00 33 1016.8
20260509225507 78 99 3.0 8.0 0.00 0.00 0.00 32 1016.9
20260509225004 78 84 5.0 8.0 0.00 0.00 0.00 31 1017.1
20260509224516 78 335 4.0 9.0 0.00 0.00 0.00 32 1017.1
20260509224008 78 20 4.0 9.0 0.00 0.00 0.00 33 1017.1
20260509223508 79 105 2.0 6.0 0.00 0.00 0.00 33 1017.1
20260509223019 78 27 2.0 7.0 0.00 0.00 0.00 34 1017.3
20260509222511 77 96 3.0 7.0 0.00 0.00 0.00 33 1017.5
20260509222011 77 74 2.0 5.0 0.00 0.00 0.00 33 1017.6
20260509221524 77 323 3.0 9.0 0.00 0.00 0.00 35 1017.6
20260509221010 76 37 6.0 9.0 0.00 0.00 0.00 35 1017.6
20260509220507 77 66 4.0 8.0 0.00 0.00 0.00 36 1017.7
20260509220027 77 35 3.0 7.0 0.00 0.00 0.00 36 1017.7
20260509215514 76 349 1.0 10.0 0.00 0.00 0.00 38 1017.8
20260509215017 76 30 4.0 11.0 0.00 0.00 0.00 39 1017.8
20260509214510 76 34 3.0 11.0 0.00 0.00 0.00 41 1017.8
20260509214006 76 66 1.0 5.0 0.00 0.00 0.00 42 1017.8
20260509213508 75 329 2.0 10.0 0.00 0.00 0.00 41 1017.9
20260509213016 75 54 5.0 10.0 0.00 0.00 0.00 43 1018.1
20260509212507 75 328 2.0 7.0 0.00 0.00 0.00 44 1018.1
20260509212011 75 341 3.0 8.0 0.00 0.00 0.00 43 1018.0
20260509211520 76 324 4.0 8.0 0.00 0.00 0.00 43 1018.1
20260509211007 75 96 2.0 8.0 0.00 0.00 0.00 46 1018.1
20260509210507 75 72 3.0 8.0 0.00 0.00 0.00 47 1018.1
20260509210029 74 101 3.0 9.0 0.00 0.00 0.00 47 1018.1
20260509205508 75 91 4.0 9.0 0.00 0.00 0.00 47 1018.2
20260509205008 74 60 2.0 8.0 0.00 0.00 0.00 47 1018.2
20260509204530 73 67 2.0 9.0 0.00 0.00 0.00 49 1018.2
20260509204017 73 59 5.0 9.0 0.00 0.00 0.00 49 1018.4
20260509203511 73 16 2.0 7.0 0.00 0.00 0.00 48 1018.4
20260509203035 73 106 4.0 8.0 0.00 0.00 0.00 50 1018.5
20260509202508 73 21 4.0 8.0 0.00 0.00 0.00 48 1018.5
20260509202013 73 87 2.0 9.0 0.00 0.00 0.00 48 1018.6
20260509201519 73 63 1.0 9.0 0.00 0.00 0.00 50 1018.7
20260509201008 73 50 4.0 8.0 0.00 0.00 0.00 48 1018.9
20260509200510 72 129 2.0 9.0 0.00 0.00 0.00 49 1018.9
20260509200022 72 28 3.0 9.0 0.00 0.00 0.00 52 1018.9
20260509195511 72 32 2.0 12.0 0.00 0.00 0.00 52 1019.0
20260509195015 71 312 4.0 12.0 0.00 0.00 0.00 52 1019.1
20260509194522 71 53 4.0 12.0 0.00 0.00 0.00 52 1019.1
20260509194013 70 326 3.0 9.0 0.00 0.00 0.00 51 1019.2
20260509193509 71 67 3.0 7.0 0.00 0.00 0.00 52 1019.2
20260509193029 70 98 3.0 8.0 0.00 0.00 0.00 52 1019.3
20260509192510 70 81 3.0 8.0 0.00 0.00 0.00 52 1019.4
20260509192012 70 103 3.0 8.0 0.00 0.00 0.00 51 1019.4
20260509191528 69 90 5.0 8.0 0.00 0.00 0.00 54 1019.5
20260509191013 69 51 3.0 7.0 0.00 0.00 0.00 53 1019.5
20260509190511 70 77 2.0 8.0 0.00 0.00 0.00 53 1019.6
20260509190020 70 67 3.0 8.0 0.00 0.00 0.00 54 1019.7
20260509185507 69 91 2.0 7.0 0.00 0.00 0.00 56 1019.8
20260509185008 68 63 5.0 8.0 0.00 0.00 0.00 56 1019.9
20260509184532 67 6 3.0 9.0 0.00 0.00 0.00 56 1020.0
20260509184012 68 39 3.0 9.0 0.00 0.00 0.00 56 1020.1
20260509183508 68 21 1.0 8.0 0.00 0.00 0.00 57 1020.2
20260509183031 67 29 4.0 8.0 0.00 0.00 0.00 57 1020.2
20260509182511 67 34 4.0 6.0 0.00 0.00 0.00 58 1020.3
20260509182013 67 83 3.0 6.0 0.00 0.00 0.00 59 1020.3
20260509181529 66 109 2.0 7.0 0.00 0.00 0.00 59 1020.3
20260509181011 66 95 3.0 7.0 0.00 0.00 0.00 59 1020.4
20260509180507 66 143 2.0 6.0 0.00 0.00 0.00 59 1020.4
20260509180025 65 56 3.0 6.0 0.00 0.00 0.00 61 1020.3
20260509175517 65 95 3.0 6.0 0.00 0.00 0.00 62 1020.4
20260509175008 65 139 2.0 7.0 0.00 0.00 0.00 62 1020.4
20260509174520 64 137 1.0 7.0 0.00 0.00 0.00 62 1020.5
20260509174007 64 74 2.0 6.0 0.00 0.00 0.00 63 1020.6
20260509173515 63 96 3.0 8.0 0.00 0.00 0.00 64 1020.7
20260509173027 62 50 2.0 8.0 0.00 0.00 0.00 66 1020.7
20260509172509 62 52 4.0 7.0 0.00 0.00 0.00 65 1020.8
20260509172005 62 111 3.0 7.0 0.00 0.00 0.00 66 1020.9
20260509171519 62 102 2.0 6.0 0.00 0.00 0.00 67 1021.0
20260509171006 61 44 3.0 7.0 0.00 0.00 0.00 68 1021.2
20260509170504 61 119 3.0 7.0 0.00 0.00 0.00 68 1021.1
20260509170014 61 63 2.0 6.0 0.00 0.00 0.00 68 1021.2
20260509165508 61 85 3.0 6.0 0.00 0.00 0.00 69 1021.3
20260509165006 60 110 1.0 5.0 0.00 0.00 0.00 69 1021.5
20260509164516 60 144 2.0 5.0 0.00 0.00 0.00 70 1021.6
20260509164009 60 86 2.0 6.0 0.00 0.00 0.00 71 1021.6
20260509163509 59 55 3.0 6.0 0.00 0.00 0.00 71 1021.6
20260509163046 59 72 1.0 6.0 0.00 0.00 0.00 73 1021.8
20260509162511 58 80 0.0 5.0 0.00 0.00 0.00 74 1021.8
20260509162010 58 105 2.0 5.0 0.00 0.00 0.00 73 1021.9
20260509161531 58 88 3.0 5.0 0.00 0.00 0.00 73 1022.0
20260509161014 58 58 0.0 5.0 0.00 0.00 0.00 74 1021.9
20260509160505 57 97 0.0 8.0 0.00 0.00 0.00 76 1022.0
20260509160007 57 56 4.0 8.0 0.00 0.00 0.00 76 1021.8
20260509155508 57 105 2.0 4.0 0.00 0.00 0.00 77 1021.8
20260509155008 56 127 1.0 3.0 0.00 0.00 0.00 78 1021.8
20260509154512 56 216 0.0 3.0 0.00 0.00 0.00 78 1021.8
20260509154006 55 68 1.0 4.0 0.00 0.00 0.00 79 1021.8
20260509153506 55 111 2.0 4.0 0.00 0.00 0.00 80 1022.0
20260509153025 55 92 1.0 4.0 0.00 0.00 0.00 80 1022.1
20260509152509 55 84 1.0 4.0 0.00 0.00 0.00 81 1022.1
20260509152010 54 92 1.0 4.0 0.00 0.00 0.00 81 1022.2
20260509151524 54 185 1.0 3.0 0.00 0.00 0.00 82 1022.2
20260509151008 54 89 1.0 3.0 0.00 0.00 0.00 82 1022.3
20260509150512 53 99 2.0 3.0 0.00 0.00 0.00 83 1022.5
20260509150026 53 53 1.0 3.0 0.00 0.00 0.00 84 1022.4
20260509145506 53 113 0.0 4.0 0.00 0.00 0.00 84 1022.3
20260509145003 53 93 1.0 4.0 0.00 0.00 0.00 85 1022.3
20260509144510 52 93 0.0 0.0 0.00 0.00 0.00 85 1022.2
20260509144006 52 139 0.0 0.0 0.00 0.00 0.00 86 1022.3
20260509143510 51 78 0.0 0.0 0.00 0.00 0.00 87 1022.2
20260509143016 51 134 0.0 0.0 0.00 0.00 0.00 88 1022.2
20260509142507 51 240 0.0 0.0 0.00 0.00 0.00 89 1022.3
20260509142009 50 261 0.0 0.0 0.00 0.00 0.00 89 1022.3
20260509141525 49 261 0.0 0.0 0.00 0.00 0.00 89 1022.2
20260509141008 49 262 0.0 0.0 0.00 0.00 0.00 90 1022.2
20260509140510 48 261 0.0 0.0 0.00 0.00 0.00 91 1022.1